FW2294 Weather Reports


Display with metric or nautical units.
time (UTC)temp
F
wind
direction
speed
MPH
gust
MPH
rain 1hr
in
rain 24hr
in
rain mn
in
humidity
%
barometer
mb
20200526131315 68 182 0.0 1.0 0.00 0.00 0.00 82 1022.6
20200526130811 67 357 0.0 1.0 0.00 0.00 0.00 82 1022.6
20200526130533 75 215 1.0 6.0 0.00 0.00 0.00 69 1021.4
20200526130307 66 119 2.0 2.0 0.00 0.00 0.00 83 1022.6
20200526125804 65 184 5.0 6.0 0.00 0.00 0.00 87 1022.6
20200526125301 64 106 0.0 0.0 0.00 0.00 0.00 90 1022.6
20200526125028 71 76 0.0 6.0 0.00 0.00 0.00 76 1021.3
20200526124801 62 166 3.0 3.0 0.00 0.00 0.00 91 1022.6
20200526124301 62 196 5.0 6.0 0.00 0.00 0.00 92 1022.3
20200526123756 62 159 2.0 2.0 0.00 0.00 0.00 92 1022.3
20200526123528 69 39 1.0 4.0 0.00 0.00 0.00 79 1021.4
20200526123250 61 164 3.0 3.0 0.00 0.00 0.00 92 1022.3
20200526122751 61 181 0.0 1.0 0.00 0.00 0.00 92 1022.6
20200526122249 61 332 1.0 2.0 0.00 0.00 0.00 92 1022.3
20200526122025 67 71 1.0 6.0 0.00 0.00 0.00 82 1021.3
20200526121744 60 146 1.0 1.0 0.00 0.00 0.00 92 1022.3
20200526121240 60 174 0.0 0.0 0.00 0.00 0.00 92 1022.3
20200526120735 60 66 0.0 0.0 0.00 0.00 0.00 92 1022.6
20200526120519 66 81 2.0 4.0 0.00 0.00 0.00 84 1021.3
20200526120235 60 161 1.0 2.0 0.00 0.00 0.00 92 1022.3
20200526115734 60 182 1.0 1.0 0.00 0.00 0.00 92 1022.3
20200526115230 60 164 1.0 1.0 0.00 0.00 0.00 92 1022.3
20200526115014 65 159 1.0 3.0 0.00 0.00 0.00 86 1021.3
20200526114726 60 173 1.0 1.0 0.00 0.00 0.00 92 1022.3
20200526114224 59 168 0.0 1.0 0.00 0.00 0.00 92 1021.9
20200526113723 59 166 2.0 3.0 0.00 0.00 0.00 92 1021.9
20200526113511 64 180 2.0 3.0 0.00 0.00 0.00 86 1021.1
20200526113222 59 167 2.0 3.0 0.00 0.00 0.00 92 1021.9
20200526112717 59 140 0.0 0.0 0.00 0.00 0.00 92 1022.3
20200526112213 59 121 0.0 0.0 0.00 0.00 0.00 92 1021.9
20200526112008 64 153 1.0 2.0 0.00 0.00 0.00 87 1021.1
20200526111712 59 66 0.0 0.0 0.00 0.00 0.00 92 1021.9
20200526111211 59 70 0.0 0.0 0.00 0.00 0.00 92 1021.9
20200526110707 59 73 1.0 1.0 0.00 0.00 0.00 92 1021.9
20200526110504 63 80 0.0 1.0 0.00 0.00 0.00 88 1020.9
20200526110205 59 128 0.0 0.0 0.00 0.00 0.00 92 1021.9
20200526105703 58 126 0.0 0.0 0.00 0.00 0.00 92 1021.9
20200526105201 58 159 0.0 1.0 0.00 0.00 0.00 92 1021.9
20200526105002 62 266 0.0 2.0 0.00 0.00 0.00 89 1021.2
20200526104700 58 97 1.0 2.0 0.00 0.00 0.00 92 1021.9
20200526104158 58 39 1.0 1.0 0.00 0.00 0.00 92 1021.9
20200526103656 58 105 0.0 0.0 0.00 0.00 0.00 92 1021.9
20200526103458 61 105 0.0 2.0 0.00 0.00 0.00 90 1021.2
20200526103152 58 64 0.0 1.0 0.00 0.00 0.00 92 1021.6
20200526102647 58 49 0.0 1.0 0.00 0.00 0.00 92 1021.9
20200526102143 58 52 1.0 1.0 0.00 0.00 0.00 92 1021.9
20200526101944 61 67 0.0 1.0 0.00 0.00 0.00 91 1021.1
20200526101642 58 67 0.0 0.0 0.00 0.00 0.00 92 1021.9
20200526101141 58 84 0.0 0.0 0.00 0.00 0.00 92 1021.9
20200526100637 58 82 0.0 0.0 0.00 0.00 0.00 92 1021.6
20200526100441 61 80 1.0 2.0 0.00 0.00 0.00 90 1021.2
20200526100133 58 163 0.0 1.0 0.00 0.00 0.00 92 1021.9
20200526095631 58 163 0.0 0.0 0.00 0.00 0.00 92 1021.6
20200526095130 58 164 1.0 1.0 0.00 0.00 0.00 92 1021.6
20200526094937 61 177 0.0 2.0 0.00 0.00 0.00 90 1021.0
20200526094626 58 182 1.0 1.0 0.00 0.00 0.00 92 1021.6
20200526094123 58 157 0.0 0.0 0.00 0.00 0.00 92 1021.6
20200526093620 58 158 0.0 0.0 0.00 0.00 0.00 92 1021.3
20200526093434 60 158 0.0 3.0 0.00 0.00 0.00 90 1020.6
20200526093118 58 212 1.0 1.0 0.00 0.00 0.00 92 1021.3
20200526092616 58 213 0.0 0.0 0.00 0.00 0.00 92 1021.3
20200526092116 58 212 1.0 1.0 0.00 0.00 0.00 92 1021.3
20200526091930 60 212 1.0 1.0 0.00 0.00 0.00 88 1020.7
20200526091611 58 213 0.0 0.0 0.00 0.00 0.00 92 1021.3
20200526091107 58 212 0.0 0.0 0.00 0.00 0.00 92 1021.3
20200526090607 57 213 0.0 0.0 0.00 0.00 0.00 92 1021.3
20200526090425 60 213 0.0 0.0 0.00 0.00 0.00 85 1020.6
20200526090104 57 213 0.0 0.0 0.00 0.00 0.00 92 1021.3
20200526085601 57 213 0.0 0.0 0.00 0.00 0.00 92 1021.3
20200526085101 57 213 0.0 0.0 0.00 0.00 0.00 92 1020.9
20200526084923 60 213 0.0 0.0 0.00 0.00 0.00 84 1020.7
20200526084557 56 213 0.0 0.0 0.00 0.00 0.00 92 1021.3
20200526084054 57 213 0.0 0.0 0.00 0.00 0.00 92 1021.3
20200526083552 56 213 0.0 0.0 0.00 0.00 0.00 92 1021.3
20200526083413 60 213 0.0 1.0 0.00 0.00 0.00 84 1020.4
20200526083051 56 213 0.0 0.0 0.00 0.00 0.00 92 1020.9
20200526082547 57 213 1.0 1.0 0.00 0.00 0.00 92 1020.9
20200526082045 56 213 0.0 0.0 0.00 0.00 0.00 92 1021.3
20200526081910 59 213 0.0 1.0 0.00 0.00 0.00 84 1020.3
20200526081539 56 213 1.0 1.0 0.00 0.00 0.00 92 1021.3
20200526081037 56 213 0.0 0.0 0.00 0.00 0.00 92 1020.9
20200526080532 56 213 0.0 0.0 0.00 0.00 0.00 92 1020.9
20200526080406 59 213 0.0 1.0 0.00 0.00 0.00 84 1020.4
20200526080028 56 213 0.0 0.0 0.00 0.00 0.00 92 1021.3
20200526075523 56 213 1.0 1.0 0.00 0.00 0.00 92 1020.9
20200526075022 56 213 0.0 1.0 0.00 0.00 0.00 92 1020.9
20200526074904 59 213 0.0 1.0 0.00 0.00 0.00 83 1020.0
20200526074518 56 213 0.0 0.0 0.00 0.00 0.00 92 1020.6
20200526074014 56 213 0.0 0.0 0.00 0.00 0.00 92 1020.9
20200526073514 57 213 0.0 0.0 0.00 0.00 0.00 92 1020.9
20200526073359 59 213 0.0 0.0 0.00 0.00 0.00 83 1020.0
20200526073013 57 213 0.0 0.0 0.00 0.00 0.00 92 1020.6
20200526072512 57 213 0.0 0.0 0.00 0.00 0.00 92 1020.9
20200526072010 57 213 0.0 0.0 0.00 0.00 0.00 92 1020.9
20200526071858 60 213 0.0 1.0 0.00 0.00 0.00 83 1019.9
20200526071506 56 213 0.0 0.0 0.00 0.00 0.00 92 1020.6
20200526071000 56 213 0.0 0.0 0.00 0.00 0.00 92 1020.9
20200526070456 56 213 0.0 0.0 0.00 0.00 0.00 92 1020.9
20200526070356 60 213 0.0 0.0 0.00 0.00 0.00 83 1020.2
20200526065956 57 213 0.0 0.0 0.00 0.00 0.00 92 1021.3
20200526065454 57 213 0.0 0.0 0.00 0.00 0.00 92 1020.9
20200526064951 57 213 0.0 0.0 0.00 0.00 0.00 92 1020.9
20200526064851 60 213 0.0 0.0 0.00 0.00 0.00 83 1020.4
20200526064449 57 213 0.0 0.0 0.00 0.00 0.00 92 1021.3
20200526063947 57 213 0.0 0.0 0.00 0.00 0.00 92 1021.3
20200526063445 58 213 0.0 0.0 0.00 0.00 0.00 92 1021.3
20200526063348 60 213 0.0 1.0 0.00 0.00 0.00 82 1020.4
20200526062941 58 213 0.0 0.0 0.00 0.00 0.00 92 1021.3
20200526062437 58 213 0.0 0.0 0.00 0.00 0.00 92 1021.3
20200526061933 58 213 0.0 0.0 0.00 0.00 0.00 92 1021.3
20200526061838 61 213 0.0 1.0 0.00 0.00 0.00 82 1020.2
20200526061429 57 213 0.0 0.0 0.00 0.00 0.00 92 1021.3
20200526060924 58 213 0.0 0.0 0.00 0.00 0.00 92 1021.3
20200526060420 58 213 0.0 0.0 0.00 0.00 0.00 92 1021.3
20200526060335 61 213 0.0 1.0 0.00 0.00 0.00 82 1020.2
20200526055918 58 213 0.0 0.0 0.00 0.00 0.00 92 1021.3
20200526055414 58 213 0.0 0.0 0.00 0.00 0.00 92 1021.3
20200526054910 58 213 0.0 0.0 0.00 0.00 0.00 92 1021.3
20200526054832 61 213 0.0 0.0 0.00 0.00 0.00 81 1020.7
20200526054408 58 213 0.0 0.0 0.00 0.00 0.00 92 1021.3
20200526053907 58 213 0.0 0.0 0.00 0.00 0.00 92 1021.3
20200526053404 59 213 0.0 0.0 0.00 0.00 0.00 92 1021.3
20200526053327 62 213 0.0 1.0 0.00 0.00 0.00 82 1020.4
20200526052903 59 213 0.0 0.0 0.00 0.00 0.00 92 1021.3
20200526052401 59 213 0.0 1.0 0.00 0.00 0.00 92 1021.3
20200526051857 59 213 0.0 0.0 0.00 0.00 0.00 92 1021.3
20200526051351 59 213 0.0 0.0 0.00 0.00 0.00 92 1021.6
20200526050850 59 213 0.0 0.0 0.00 0.00 0.00 92 1021.3
20200526050345 59 213 0.0 0.0 0.00 0.00 0.00 92 1021.6
20200526050321 62 213 0.0 1.0 0.00 0.00 0.00 80 1020.6
20200526045844 59 213 0.0 1.0 0.00 0.00 0.00 92 1021.3
20200526045340 59 213 0.0 0.0 0.00 0.00 0.00 92 1021.3
20200526044839 60 213 0.0 0.0 0.00 0.00 0.00 92 1021.6
20200526044817 63 213 0.0 0.0 0.00 0.00 0.00 80 1020.7
20200526044335 60 213 0.0 0.0 0.00 0.00 0.00 92 1021.6
20200526043834 60 213 0.0 0.0 0.00 0.00 0.00 92 1021.6
20200526043331 60 213 1.0 1.0 0.00 0.00 0.00 91 1021.6
20200526043315 63 213 0.0 1.0 0.00 0.00 0.00 80 1020.6
20200526042828 61 213 0.0 0.0 0.00 0.00 0.00 91 1021.6
20200526042326 61 212 0.0 0.0 0.00 0.00 0.00 90 1021.6
20200526041823 61 213 0.0 0.0 0.00 0.00 0.00 90 1021.6
20200526041813 64 213 0.0 1.0 0.00 0.00 0.00 80 1020.6
20200526041319 61 213 0.0 0.0 0.00 0.00 0.00 90 1021.6
20200526040815 61 213 0.0 0.0 0.00 0.00 0.00 90 1021.3
20200526040312 62 213 0.0 0.0 0.00 0.00 0.00 89 1021.6
20200526040303 64 213 0.0 1.0 0.00 0.00 0.00 79 1020.6
20200526035809 62 213 0.0 1.0 0.00 0.00 0.00 89 1021.3
20200526035307 62 213 0.0 0.0 0.00 0.00 0.00 88 1021.3
20200526034807 62 213 0.0 0.0 0.00 0.00 0.00 88 1021.3
20200526034800 65 213 0.0 1.0 0.00 0.00 0.00 79 1020.4
20200526034301 62 213 0.0 0.0 0.00 0.00 0.00 87 1021.6
20200526033801 63 213 0.0 0.0 0.00 0.00 0.00 87 1021.3
20200526033257 63 213 0.0 0.0 0.00 0.00 0.00 86 1021.6
20200526033252 65 213 0.0 1.0 0.00 0.00 0.00 79 1020.3
20200526032751 63 213 0.0 0.0 0.00 0.00 0.00 85 1021.6
20200526032248 63 212 0.0 0.0 0.00 0.00 0.00 85 1021.3
20200526031748 64 213 0.0 0.0 0.00 0.00 0.00 84 1021.3
20200526031746 65 213 0.0 3.0 0.00 0.00 0.00 80 1020.3
20200526031246 64 212 1.0 1.0 0.00 0.00 0.00 84 1021.3
20200526030746 64 200 0.0 0.0 0.00 0.00 0.00 84 1021.3
20200526030242 65 200 0.0 4.0 0.00 0.00 0.00 79 1020.6
20200526025736 64 194 0.0 1.0 0.00 0.00 0.00 83 1021.3
20200526025234 64 179 1.0 1.0 0.00 0.00 0.00 83 1021.3
20200526024743 66 186 1.0 3.0 0.00 0.00 0.00 79 1020.4
20200526024730 64 186 1.0 1.0 0.00 0.00 0.00 82 1021.3
20200526024227 64 182 1.0 1.0 0.00 0.00 0.00 82 1021.3
20200526023723 64 222 1.0 1.0 0.00 0.00 0.00 82 1021.3
20200526023236 66 166 1.0 3.0 0.00 0.00 0.00 79 1020.2
20200526023221 65 166 3.0 3.0 0.00 0.00 0.00 82 1021.3
20200526022718 65 196 0.0 1.0 0.00 0.00 0.00 82 1021.3
20200526022213 65 186 0.0 1.0 0.00 0.00 0.00 81 1021.3
20200526021734 67 186 0.0 3.0 0.00 0.00 0.00 76 1020.0
20200526021709 65 187 1.0 1.0 0.00 0.00 0.00 81 1021.3
20200526021207 65 184 1.0 2.0 0.00 0.00 0.00 81 1021.3
20200526020706 65 187 0.0 0.0 0.00 0.00 0.00 80 1021.3
20200526020228 67 203 1.0 6.0 0.00 0.00 0.00 75 1019.9
20200526020203 66 200 0.0 0.0 0.00 0.00 0.00 80 1020.9
20200526015659 66 201 0.0 0.0 0.00 0.00 0.00 79 1020.9
20200526015159 66 201 1.0 1.0 0.00 0.00 0.00 79 1020.9
20200526014726 68 189 1.0 4.0 0.00 0.00 0.00 76 1019.8
20200526014657 66 197 2.0 3.0 0.00 0.00 0.00 78 1020.6
20200526014153 66 194 1.0 2.0 0.00 0.00 0.00 78 1020.9
20200526013649 67 179 1.0 1.0 0.00 0.00 0.00 78 1020.6
20200526013223 68 211 0.0 7.0 0.00 0.00 0.00 75 1019.3
20200526013147 67 212 2.0 2.0 0.00 0.00 0.00 77 1020.6
20200526012646 67 199 1.0 1.0 0.00 0.00 0.00 77 1020.6
20200526012143 67 185 1.0 2.0 0.00 0.00 0.00 77 1020.6
20200526011721 69 175 0.0 7.0 0.00 0.00 0.00 73 1019.3
20200526011640 68 174 0.0 0.0 0.00 0.00 0.00 76 1020.2
20200526011139 68 184 4.0 4.0 0.00 0.00 0.00 75 1020.2
20200526010634 68 168 5.0 7.0 0.00 0.00 0.00 75 1020.2
20200526010221 69 185 1.0 4.0 0.00 0.00 0.00 72 1018.9
20200526010130 68 186 1.0 1.0 0.00 0.00 0.00 75 1020.2
20200526005626 68 192 1.0 1.0 0.00 0.00 0.00 75 1020.2
20200526005124 68 186 2.0 3.0 0.00 0.00 0.00 74 1020.2
20200526004715 70 200 0.0 4.0 0.00 0.00 0.00 70 1019.1
20200526004622 69 200 1.0 1.0 0.00 0.00 0.00 73 1020.2
20200526004120 69 161 3.0 3.0 0.00 0.00 0.00 72 1020.2
20200526003619 69 143 1.0 2.0 0.00 0.00 0.00 71 1020.2
20200526003203 70 162 0.0 4.0 0.00 0.00 0.00 68 1018.9
20200526003117 69 162 0.0 0.0 0.00 0.00 0.00 71 1019.9
20200526002615 69 191 0.0 0.0 0.00 0.00 0.00 71 1020.2
20200526002110 69 186 0.0 0.0 0.00 0.00 0.00 71 1020.2
20200526001659 71 186 0.0 2.0 0.00 0.00 0.00 67 1018.8
20200526001605 70 186 0.0 0.0 0.00 0.00 0.00 70 1019.9
20200526001103 70 186 1.0 1.0 0.00 0.00 0.00 68 1019.9
20200526000600 71 186 2.0 2.0 0.00 0.00 0.00 68 1020.2
20200526000150 72 186 0.0 4.0 0.00 0.00 0.00 66 1018.9
20200526000057 71 186 1.0 1.0 0.00 0.00 0.00 67 1019.9
20200525235552 71 184 2.0 3.0 0.00 0.00 0.00 67 1019.9
20200525235050 71 194 0.0 1.0 0.00 0.00 0.00 67 1020.2
20200525234641 73 181 1.0 6.0 0.00 0.00 0.00 64 1018.4
20200525234550 71 178 2.0 2.0 0.00 0.00 0.00 66 1020.2
20200525234047 72 172 1.0 1.0 0.00 0.00 0.00 66 1019.9
20200525233542 72 166 3.0 3.0 0.00 0.00 0.00 65 1019.9
20200525233135 73 172 1.0 6.0 0.00 0.00 0.00 64 1018.6
20200525233040 72 175 3.0 3.0 0.00 0.00 0.00 65 1019.9
20200525232539 72 209 3.0 3.0 0.00 0.00 0.00 65 1019.9
20200525232036 73 180 1.0 2.0 0.00 0.00 0.00 65 1019.9
20200525231634 74 190 1.0 6.0 0.00 0.00 0.00 62 1018.4
20200525231532 73 204 0.0 1.0 0.00 0.00 0.00 64 1019.9
20200525231031 73 173 1.0 2.0 0.00 0.00 0.00 63 1019.9
20200525230528 73 167 2.0 2.0 0.00 0.00 0.00 62 1019.9
20200525230133 74 163 3.0 6.0 0.00 0.00 0.00 60 1018.4
20200525230024 73 168 3.0 3.0 0.00 0.00 0.00 62 1019.9
20200525225522 74 205 0.0 0.0 0.00 0.00 0.00 62 1019.9
20200525225019 73 164 1.0 1.0 0.00 0.00 0.00 61 1019.9
20200525224626 75 216 4.0 8.0 0.00 0.00 0.00 60 1017.9
20200525224516 74 132 1.0 2.0 0.00 0.00 0.00 61 1019.9
20200525224012 74 203 3.0 4.0 0.00 0.00 0.00 60 1019.6
20200525223511 74 170 5.0 7.0 0.00 0.00 0.00 61 1019.6
20200525223124 75 179 4.0 9.0 0.00 0.00 0.00 60 1018.2
20200525223008 74 148 3.0 3.0 0.00 0.00 0.00 61 1019.6
20200525222506 75 168 1.0 1.0 0.00 0.00 0.00 60 1019.6
20200525222004 75 200 2.0 3.0 0.00 0.00 0.00 60 1019.9
20200525221619 76 153 2.0 9.0 0.00 0.00 0.00 59 1018.2
20200525221501 75 173 1.0 2.0 0.00 0.00 0.00 59 1019.9
20200525220955 75 190 1.0 2.0 0.00 0.00 0.00 60 1019.9
20200525220453 75 157 0.0 1.0 0.00 0.00 0.00 60 1019.9
20200525220118 76 223 1.0 6.0 0.00 0.00 0.00 58 1018.5
20200525215948 75 167 2.0 3.0 0.00 0.00 0.00 59 1020.2
20200525215443 75 138 3.0 4.0 0.00 0.00 0.00 59 1020.2
20200525214942 75 206 2.0 3.0 0.00 0.00 0.00 60 1019.9
20200525214613 76 171 3.0 10.0 0.00 0.00 0.00 59 1018.4
20200525214438 75 183 4.0 4.0 0.00 0.00 0.00 60 1020.2
20200525213933 75 193 2.0 2.0 0.00 0.00 0.00 59 1020.2
20200525213431 75 201 4.0 4.0 0.00 0.00 0.00 60 1020.2
20200525213111 77 214 1.0 9.0 0.00 0.00 0.00 57 1018.5
20200525212926 75 157 3.0 3.0 0.00 0.00 0.00 58 1020.2
20200525212425 76 184 3.0 4.0 0.00 0.00 0.00 58 1020.2
20200525211919 77 301 0.0 1.0 0.00 0.00 0.00 58 1020.2
20200525211606 78 258 1.0 9.0 0.00 0.00 0.00 57 1018.5
20200525211415 76 171 2.0 2.0 0.00 0.00 0.00 58 1020.2
20200525210914 77 208 4.0 6.0 0.00 0.00 0.00 57 1020.2
20200525210413 76 269 2.0 2.0 0.00 0.00 0.00 56 1020.2
20200525210101 78 159 3.0 4.0 0.00 0.00 0.00 54 1018.6
20200525205908 77 192 1.0 1.0 0.00 0.00 0.00 56 1020.2
20200525205405 77 170 0.0 1.0 0.00 0.00 0.00 56 1020.2
20200525204902 76 115 0.0 0.0 0.00 0.00 0.00 58 1020.2
20200525204558 78 198 1.0 8.0 0.00 0.00 0.00 54 1018.7
20200525204400 76 184 4.0 4.0 0.00 0.00 0.00 56 1020.2
20200525203857 77 157 4.0 6.0 0.00 0.00 0.00 55 1020.6
20200525203357 76 206 0.0 1.0 0.00 0.00 0.00 55 1020.6
20200525203055 78 209 1.0 7.0 0.00 0.00 0.00 53 1018.8
20200525202854 76 168 3.0 4.0 0.00 0.00 0.00 56 1020.2
20200525202353 76 209 3.0 3.0 0.00 0.00 0.00 57 1020.6
20200525201848 77 105 6.0 7.0 0.00 0.00 0.00 56 1020.6
20200525201550 79 145 4.0 6.0 0.00 0.00 0.00 55 1019.0
20200525201346 77 141 3.0 4.0 0.00 0.00 0.00 57 1020.9
20200525200841 77 85 1.0 1.0 0.00 0.00 0.00 57 1020.9
20200525200340 76 208 2.0 3.0 0.00 0.00 0.00 57 1020.9
20200525200048 80 147 1.0 4.0 0.00 0.00 0.00 52 1019.0
20200525195836 76 123 2.0 3.0 0.00 0.00 0.00 58 1020.9
20200525195335 76 155 1.0 1.0 0.00 0.00 0.00 58 1020.9
20200525194828 76 112 1.0 2.0 0.00 0.00 0.00 56 1021.3
20200525194543 81 2 1.0 4.0 0.00 0.00 0.00 51 1019.2
20200525194323 77 142 1.0 2.0 0.00 0.00 0.00 56 1021.3
20200525193817 76 210 1.0 2.0 0.00 0.00 0.00 58 1020.9
20200525193315 75 24 2.0 2.0 0.00 0.00 0.00 60 1021.3
20200525193042 80 357 2.0 6.0 0.00 0.00 0.00 54 1019.5
20200525192815 74 144 2.0 2.0 0.00 0.00 0.00 60 1021.3
20200525192312 74 80 1.0 1.0 0.00 0.00 0.00 61 1021.3
20200525191810 74 14 3.0 3.0 0.00 0.00 0.00 60 1021.3
20200525191536 80 248 0.0 6.0 0.00 0.00 0.00 52 1019.7
20200525191308 74 56 1.0 1.0 0.00 0.00 0.00 60 1021.3
20200525190807 74 71 0.0 1.0 0.00 0.00 0.00 61 1021.6
20200525190302 74 311 1.0 1.0 0.00 0.00 0.00 61 1021.6
20200525190035 79 155 0.0 4.0 0.00 0.00 0.00 54 1019.9
20200525185800 73 215 1.0 1.0 0.00 0.00 0.00 63 1021.6
20200525185258 72 205 3.0 4.0 0.00 0.00 0.00 64 1021.6
20200525184753 72 185 1.0 1.0 0.00 0.00 0.00 65 1021.6
20200525184534 78 161 0.0 6.0 0.00 0.00 0.00 55 1020.0
20200525184250 72 166 2.0 3.0 0.00 0.00 0.00 63 1021.9
20200525183749 72 138 0.0 1.0 0.00 0.00 0.00 65 1021.9
20200525183248 72 179 4.0 4.0 0.00 0.00 0.00 64 1022.3
20200525183027 77 30 0.0 2.0 0.00 0.00 0.00 56 1020.7
20200525182745 71 338 2.0 2.0 0.00 0.00 0.00 65 1022.3
20200525182243 72 223 0.0 0.0 0.00 0.00 0.00 65 1021.9
20200525181738 71 183 1.0 1.0 0.00 0.00 0.00 66 1022.3
20200525181525 77 227 1.0 3.0 0.00 0.00 0.00 56 1020.9
20200525181234 72 203 1.0 2.0 0.00 0.00 0.00 66 1022.3
20200525180729 72 211 0.0 1.0 0.00 0.00 0.00 65 1022.6
20200525180225 72 120 2.0 3.0 0.00 0.00 0.00 65 1022.6
20200525180020 78 0 1.0 7.0 0.00 0.00 0.00 56 1021.1
20200525175722 72 29 1.0 2.0 0.00 0.00 0.00 64 1022.6
20200525175221 72 341 3.0 3.0 0.00 0.00 0.00 65 1022.6
20200525174720 73 342 3.0 3.0 0.00 0.00 0.00 62 1022.6
20200525174518 79 346 4.0 8.0 0.00 0.00 0.00 56 1021.2
20200525174218 73 198 1.0 2.0 0.00 0.00 0.00 65 1022.6
20200525173715 73 220 1.0 2.0 0.00 0.00 0.00 64 1022.6
20200525173212 73 200 2.0 2.0 0.00 0.00 0.00 65 1022.6
20200525173016 78 60 2.0 8.0 0.00 0.00 0.00 55 1021.3
20200525172708 73 9 2.0 2.0 0.00 0.00 0.00 65 1023.0
20200525172208 72 207 1.0 1.0 0.00 0.00 0.00 64 1023.0
20200525171706 71 59 2.0 3.0 0.00 0.00 0.00 68 1023.0
20200525171515 78 89 1.0 9.0 0.00 0.00 0.00 52 1021.6
20200525171203 72 161 5.0 7.0 0.00 0.00 0.00 65 1023.0
20200525170701 70 265 3.0 4.0 0.00 0.00 0.00 65 1023.0
20200525170200 70 174 7.0 9.0 0.00 0.00 0.00 66 1023.0
20200525170002 78 309 3.0 6.0 0.00 0.00 0.00 53 1021.7
20200525165659 70 348 3.0 3.0 0.00 0.00 0.00 67 1023.0
20200525165157 70 95 2.0 2.0 0.00 0.00 0.00 67 1023.0
20200525164656 70 346 3.0 4.0 0.00 0.00 0.00 68 1023.0
20200525164500 79 6 2.0 4.0 0.00 0.00 0.00 55 1021.5
20200525164152 72 40 1.0 2.0 0.00 0.00 0.00 65 1023.0
20200525163652 71 205 0.0 1.0 0.00 0.00 0.00 65 1022.6
20200525163149 68 74 1.0 1.0 0.00 0.00 0.00 70 1022.6
20200525162954 78 30 3.0 9.0 0.00 0.00 0.00 55 1021.4
20200525162644 68 62 1.0 2.0 0.00 0.00 0.00 71 1023.0
20200525162140 68 167 2.0 2.0 0.00 0.00 0.00 71 1023.0
20200525161638 68 173 3.0 4.0 0.00 0.00 0.00 71 1023.0
20200525161452 78 164 4.0 4.0 0.00 0.00 0.00 52 1021.6
20200525161137 68 343 2.0 2.0 0.00 0.00 0.00 70 1023.0
20200525160632 67 302 0.0 1.0 0.00 0.00 0.00 71 1023.0
20200525160128 68 349 2.0 2.0 0.00 0.00 0.00 71 1023.0
20200525155949 77 349 1.0 6.0 0.00 0.00 0.00 54 1021.5
20200525155624 66 155 0.0 1.0 0.00 0.00 0.00 73 1023.0
20200525155120 66 148 4.0 4.0 0.00 0.00 0.00 73 1023.0
20200525154618 65 94 1.0 1.0 0.00 0.00 0.00 74 1023.0
20200525154444 77 95 2.0 3.0 0.00 0.00 0.00 54 1021.7
20200525154115 66 113 2.0 2.0 0.00 0.00 0.00 75 1023.0
20200525153613 65 95 0.0 1.0 0.00 0.00 0.00 74 1023.0
20200525153108 64 70 1.0 2.0 0.00 0.00 0.00 76 1023.0
20200525152942 76 74 1.0 4.0 0.00 0.00 0.00 56 1021.6
20200525152608 65 17 1.0 1.0 0.00 0.00 0.00 74 1023.0
20200525152107 65 22 0.0 1.0 0.00 0.00 0.00 74 1023.0
20200525151604 64 353 2.0 3.0 0.00 0.00 0.00 77 1023.0
20200525151437 75 354 1.0 7.0 0.00 0.00 0.00 56 1021.5
20200525151100 64 32 1.0 2.0 0.00 0.00 0.00 75 1023.0
20200525150556 64 357 3.0 3.0 0.00 0.00 0.00 76 1023.0
20200525150054 64 74 1.0 2.0 0.00 0.00 0.00 75 1023.0
20200525145936 75 92 1.0 3.0 0.00 0.00 0.00 57 1021.8
20200525145554 64 113 1.0 2.0 0.00 0.00 0.00 77 1023.0
20200525145053 64 54 0.0 0.0 0.00 0.00 0.00 75 1023.0
20200525144551 62 54 3.0 3.0 0.00 0.00 0.00 78 1022.6
20200525144433 73 50 2.0 3.0 0.00 0.00 0.00 61 1021.6
20200525144050 62 98 3.0 3.0 0.00 0.00 0.00 78 1023.0
20200525143547 63 103 0.0 1.0 0.00 0.00 0.00 79 1023.0
20200525143044 64 355 1.0 2.0 0.00 0.00 0.00 75 1022.6
20200525142926 73 358 0.0 3.0 0.00 0.00 0.00 59 1021.4
20200525142541 62 358 0.0 0.0 0.00 0.00 0.00 77 1022.6
20200525142038 61 357 2.0 2.0 0.00 0.00 0.00 80 1022.6
20200525141533 62 357 2.0 3.0 0.00 0.00 0.00 79 1022.6
20200525141424 71 357 2.0 3.0 0.00 0.00 0.00 62 1021.3
20200525141029 62 357 1.0 2.0 0.00 0.00 0.00 79 1022.6
20200525140527 62 55 0.0 1.0 0.00 0.00 0.00 79 1022.3
20200525140023 62 22 2.0 2.0 0.00 0.00 0.00 78 1022.6
20200525135920 69 27 1.0 4.0 0.00 0.00 0.00 65 1021.7
20200525135518 61 170 0.0 0.0 0.00 0.00 0.00 80 1022.6
20200525135013 60 171 1.0 2.0 0.00 0.00 0.00 80 1022.6
20200525134512 60 23 2.0 3.0 0.00 0.00 0.00 80 1022.6
20200525134417 68 19 0.0 3.0 0.00 0.00 0.00 68 1021.7
20200525134009 60 21 1.0 1.0 0.00 0.00 0.00 80 1022.6
20200525133509 60 54 1.0 1.0 0.00 0.00 0.00 82 1023.0
20200525133007 59 56 2.0 2.0 0.00 0.00 0.00 82 1023.0
20200525132915 66 46 1.0 4.0 0.00 0.00 0.00 70 1021.8
20200525132506 59 57 1.0 1.0 0.00 0.00 0.00 83 1023.0
20200525132002 59 16 2.0 2.0 0.00 0.00 0.00 83 1023.0